GEC8366 EHEH-LIMC

Flight info

Callsign GEC8366
Flight time 1h 28m
Altitude 35000
Route LNO Z283 SOPOK Y863 OGLOR DCT EMGOD L607 ABUKA/N0460F360 DCT KRH DCT NATOR/N0461F350 DCT TRA DCT RIPUS DCT GERSA DCT SOSON DCT DEGAD Z424 BASGO/N0470F290 Z424 AKASU/N0402F190 Z424 RIXUV
Aircraft A321/M-SDE3FGHIRWY/LB1

Departure

Time 2026-05-05 18:25
Airport Eindhoven Airport (EHEH)

Arrival

Time 2026-05-05 19:54
Airport Milan Malpensa International Airport (LIMC)
Time Latitude Longitude Altitude Speed Heading
2026-05-05 17:56 51.45562 5.38719 84 ft 0 kts 124°
2026-05-05 18:10 51.45567 5.38707 84 ft 0 kts 119°
2026-05-05 18:10 51.45570 5.38694 84 ft 1 kts 107°
2026-05-05 18:10 51.45572 5.38684 84 ft 1 kts 98°
2026-05-05 18:11 51.45573 5.38665 84 ft 1 kts 84°
2026-05-05 18:11 51.45571 5.38651 84 ft 0 kts 75°
2026-05-05 18:11 51.45569 5.38638 84 ft 1 kts 74°
2026-05-05 18:11 51.45566 5.38619 84 ft 2 kts 74°
2026-05-05 18:12 51.45563 5.38602 84 ft 0 kts 68°
2026-05-05 18:12 51.45563 5.38601 84 ft 0 kts 54°
2026-05-05 18:12 51.45561 5.38597 84 ft 0 kts 38°
2026-05-05 18:12 51.45559 5.38595 84 ft 0 kts 38°
2026-05-05 18:14 51.45560 5.38596 84 ft 0 kts 28°
2026-05-05 18:14 51.45565 5.38597 84 ft 1 kts
2026-05-05 18:15 51.45572 5.38598 84 ft 0 kts 16°
2026-05-05 18:16 51.45576 5.38600 84 ft 3 kts 20°
2026-05-05 18:17 51.45619 5.38640 84 ft 9 kts 34°
2026-05-05 18:17 51.45681 5.38711 84 ft 11 kts 35°
2026-05-05 18:17 51.45751 5.38786 84 ft 12 kts 22°
2026-05-05 18:17 51.45819 5.38717 84 ft 13 kts 305°
2026-05-05 18:18 51.45872 5.38596 84 ft 13 kts 305°
2026-05-05 18:18 51.45927 5.38471 84 ft 14 kts 305°
2026-05-05 18:18 51.45977 5.38358 84 ft 8 kts 305°
2026-05-05 18:18 51.45988 5.38273 84 ft 8 kts 236°
2026-05-05 18:19 51.45937 5.38205 84 ft 10 kts 214°
2026-05-05 18:19 51.45875 5.38138 84 ft 11 kts 213°
2026-05-05 18:19 51.45808 5.38066 84 ft 12 kts 214°
2026-05-05 18:19 51.45737 5.37988 84 ft 12 kts 215°
2026-05-05 18:20 51.45663 5.37902 84 ft 13 kts 215°
2026-05-05 18:20 51.45584 5.37812 84 ft 14 kts 215°
2026-05-05 18:20 51.45503 5.37720 84 ft 14 kts 215°
2026-05-05 18:20 51.45419 5.37624 84 ft 15 kts 214°
2026-05-05 18:21 51.45330 5.37529 84 ft 15 kts 213°
2026-05-05 18:21 51.45240 5.37432 84 ft 15 kts 213°
2026-05-05 18:21 51.45148 5.37331 84 ft 16 kts 214°
2026-05-05 18:21 51.45056 5.37226 84 ft 16 kts 216°
2026-05-05 18:22 51.44962 5.37117 84 ft 16 kts 215°
2026-05-05 18:22 51.44865 5.37010 84 ft 16 kts 214°
2026-05-05 18:22 51.44762 5.36894 84 ft 20 kts 215°
2026-05-05 18:22 51.44638 5.36753 84 ft 22 kts 216°
2026-05-05 18:23 51.44510 5.36609 84 ft 22 kts 215°
2026-05-05 18:23 51.44384 5.36466 84 ft 22 kts 214°
2026-05-05 18:23 51.44259 5.36330 84 ft 18 kts 218°
2026-05-05 18:23 51.44155 5.36215 84 ft 18 kts 213°
2026-05-05 18:24 51.44080 5.36129 84 ft 12 kts 216°
2026-05-05 18:24 51.44000 5.36080 84 ft 12 kts 168°
2026-05-05 18:24 51.43949 5.36192 84 ft 13 kts 95°
2026-05-05 18:24 51.43974 5.36282 84 ft 0 kts 37°
2026-05-05 18:25 51.44025 5.36342 84 ft 39 kts 35°
2026-05-05 18:25 51.44125 5.36453 84 ft 66 kts 34°
2026-05-05 18:25 51.45316 5.37753 141 ft 170 kts 37°
2026-05-05 18:25 51.46258 5.38855 949 ft 167 kts 37°
2026-05-05 18:26 51.47119 5.39906 1823 ft 155 kts 37°
2026-05-05 18:26 51.48032 5.40940 2172 ft 168 kts 35°
2026-05-05 18:26 51.49013 5.42061 2567 ft 179 kts 36°
2026-05-05 18:26 51.50082 5.43218 2959 ft 192 kts 33°
2026-05-05 18:27 51.51102 5.44679 3281 ft 208 kts 56°
2026-05-05 18:27 51.51505 5.46955 3754 ft 224 kts 89°
2026-05-05 18:27 51.51124 5.49367 4479 ft 228 kts 105°
2026-05-05 18:27 51.50618 5.51796 5099 ft 235 kts 104°
2026-05-05 18:28 51.49587 5.56862 5894 ft 236 kts 103°
2026-05-05 18:28 51.49202 5.59423 5883 ft 233 kts 99°
2026-05-05 18:28 51.48875 5.61939 5884 ft 233 kts 99°
2026-05-05 18:29 51.48474 5.64479 5878 ft 235 kts 110°
2026-05-05 18:29 51.47517 5.66577 5831 ft 238 kts 139°
2026-05-05 18:29 51.46111 5.68061 5868 ft 241 kts 145°
2026-05-05 18:29 51.44715 5.69500 5927 ft 241 kts 144°
2026-05-05 18:30 51.43321 5.71006 5932 ft 241 kts 143°
2026-05-05 18:30 51.41952 5.72544 5861 ft 241 kts 143°
2026-05-05 18:30 51.40539 5.74004 6149 ft 246 kts 146°
2026-05-05 18:30 51.39086 5.75488 6805 ft 252 kts 146°
2026-05-05 18:31 51.37584 5.77039 7310 ft 266 kts 146°
2026-05-05 18:31 51.36008 5.78711 7772 ft 280 kts 144°
2026-05-05 18:31 51.34359 5.80456 8446 ft 285 kts 145°
2026-05-05 18:31 51.32715 5.82203 9141 ft 289 kts 146°
2026-05-05 18:32 51.31036 5.83983 9691 ft 292 kts 146°
2026-05-05 18:32 51.29346 5.85725 9904 ft 292 kts 146°
2026-05-05 18:32 51.27590 5.87535 10199 ft 305 kts 146°
2026-05-05 18:32 51.25737 5.89292 10540 ft 321 kts 154°
2026-05-05 18:33 51.23594 5.90495 11030 ft 331 kts 166°
2026-05-05 18:33 51.21328 5.91093 11702 ft 334 kts 171°
2026-05-05 18:33 51.19013 5.91566 12381 ft 336 kts 172°
2026-05-05 18:33 51.16717 5.92022 13040 ft 337 kts 172°
2026-05-05 18:34 51.14392 5.92494 13684 ft 339 kts 172°
2026-05-05 18:34 51.12057 5.92972 14314 ft 341 kts 174°
2026-05-05 18:34 51.09678 5.93051 14936 ft 343 kts 183°
2026-05-05 18:34 51.07305 5.92494 15534 ft 346 kts 192°
2026-05-05 18:35 51.04988 5.91520 16105 ft 349 kts 194°
2026-05-05 18:35 51.02658 5.90477 16666 ft 352 kts 195°
2026-05-05 18:35 51.00315 5.89418 17224 ft 353 kts 195°
2026-05-05 18:35 50.97956 5.88355 17769 ft 355 kts 194°
2026-05-05 18:36 50.95577 5.87294 18295 ft 357 kts 195°
2026-05-05 18:36 50.93193 5.86238 18840 ft 358 kts 195°
2026-05-05 18:36 50.90784 5.85174 19345 ft 360 kts 194°
2026-05-05 18:36 50.88353 5.84103 19847 ft 363 kts 194°
2026-05-05 18:37 50.85927 5.83036 20276 ft 367 kts 194°
2026-05-05 18:37 50.83459 5.81958 20746 ft 369 kts 194°
2026-05-05 18:37 50.80989 5.80874 21226 ft 372 kts 195°
2026-05-05 18:37 50.78497 5.79781 21682 ft 375 kts 195°
2026-05-05 18:38 50.75989 5.78681 22103 ft 378 kts 194°
2026-05-05 18:38 50.73453 5.77571 22522 ft 381 kts 195°
2026-05-05 18:38 50.70899 5.76453 22943 ft 384 kts 194°
2026-05-05 18:38 50.68324 5.75330 23366 ft 386 kts 194°
2026-05-05 18:39 50.65726 5.74193 23788 ft 388 kts 194°
2026-05-05 18:39 50.63128 5.73062 24221 ft 391 kts 194°
2026-05-05 18:39 50.60476 5.72046 24644 ft 393 kts 188°
2026-05-05 18:39 50.57777 5.71599 25093 ft 393 kts 181°
2026-05-05 18:40 50.55041 5.71752 25510 ft 394 kts 173°
2026-05-05 18:40 50.52339 5.72253 25979 ft 395 kts 172°
2026-05-05 18:40 50.49608 5.72781 26311 ft 398 kts 171°
2026-05-05 18:40 50.46850 5.73320 26673 ft 401 kts 172°
2026-05-05 18:41 50.44065 5.73864 27112 ft 403 kts 171°
2026-05-05 18:41 50.41307 5.74393 27462 ft 405 kts 172°
2026-05-05 18:41 50.38505 5.74930 27852 ft 407 kts 171°
2026-05-05 18:41 50.35708 5.75462 28233 ft 409 kts 171°
2026-05-05 18:42 50.32887 5.75999 28562 ft 410 kts 170°
2026-05-05 18:42 50.30113 5.77038 28853 ft 409 kts 157°
2026-05-05 18:42 50.27651 5.79178 29143 ft 409 kts 143°
2026-05-05 18:42 50.25584 5.82240 29470 ft 409 kts 129°
2026-05-05 18:43 50.24065 5.85960 29783 ft 411 kts 116°
2026-05-05 18:43 50.23135 5.90164 30078 ft 413 kts 107°
2026-05-05 18:43 50.22409 5.94476 30313 ft 415 kts 105°
2026-05-05 18:43 50.21668 5.98871 30534 ft 416 kts 105°
2026-05-05 18:44 50.20940 6.03185 30861 ft 416 kts 106°
2026-05-05 18:44 50.20217 6.07570 31094 ft 418 kts 104°
2026-05-05 18:44 50.19622 6.12023 31364 ft 421 kts 102°
2026-05-05 18:44 50.19191 6.16537 31565 ft 423 kts 98°
2026-05-05 18:45 50.18930 6.21081 31804 ft 426 kts 95°
2026-05-05 18:45 50.18840 6.25707 31998 ft 429 kts 92°
2026-05-05 18:45 50.18933 6.30359 32225 ft 431 kts 89°
2026-05-05 18:45 50.19186 6.35016 32470 ft 432 kts 87°
2026-05-05 18:46 50.19471 6.39625 32674 ft 434 kts 87°
2026-05-05 18:46 50.19770 6.44351 32826 ft 435 kts 87°
2026-05-05 18:46 50.20063 6.49046 33023 ft 437 kts 87°
2026-05-05 18:46 50.20349 6.53714 33179 ft 438 kts 87°
2026-05-05 18:47 50.20641 6.58479 33326 ft 439 kts 87°
2026-05-05 18:47 50.20858 6.63153 33504 ft 439 kts 90°
2026-05-05 18:47 50.20920 6.67925 33664 ft 438 kts 94°
2026-05-05 18:47 50.20858 6.72652 33827 ft 439 kts 95°
2026-05-05 18:48 50.20778 6.77397 33957 ft 440 kts 95°
2026-05-05 18:48 50.20691 6.82155 34048 ft 442 kts 95°
2026-05-05 18:48 50.20511 6.91744 34280 ft 443 kts 95°
2026-05-05 18:49 50.20419 6.96546 34418 ft 444 kts 95°
2026-05-05 18:49 50.20325 7.01368 34516 ft 446 kts 95°
2026-05-05 18:49 50.20129 7.10972 34729 ft 445 kts 95°
2026-05-05 18:50 50.19927 7.20561 34809 ft 437 kts 95°
2026-05-05 18:50 50.19375 7.29856 34797 ft 432 kts 101°
2026-05-05 18:51 50.18206 7.39009 34796 ft 429 kts 107°
2026-05-05 18:51 50.16482 7.47832 34807 ft 428 kts 110°
2026-05-05 18:52 50.14635 7.56594 34827 ft 427 kts 111°
2026-05-05 18:52 50.12764 7.65396 34816 ft 427 kts 111°
2026-05-05 18:53 50.10905 7.74134 34802 ft 427 kts 111°
2026-05-05 18:53 50.08976 7.82845 34813 ft 426 kts 114°
2026-05-05 18:54 50.06559 7.91252 34845 ft 427 kts 119°
2026-05-05 18:54 50.03610 7.99186 34841 ft 424 kts 124°
2026-05-05 18:55 49.99803 8.06101 34827 ft 422 kts 139°
2026-05-05 18:55 49.94954 8.11076 34828 ft 421 kts 154°
2026-05-05 18:56 49.89456 8.14208 34802 ft 423 kts 161°
2026-05-05 18:56 49.83858 8.17024 34820 ft 424 kts 161°
2026-05-05 18:57 49.78251 8.19832 34843 ft 423 kts 161°
2026-05-05 18:57 49.72640 8.22646 34806 ft 424 kts 161°
2026-05-05 18:58 49.66972 8.24984 34789 ft 425 kts 171°
2026-05-05 18:58 49.61055 8.25662 34804 ft 428 kts 174°
2026-05-05 18:59 49.55096 8.26242 34778 ft 431 kts 174°
2026-05-05 18:59 49.49141 8.26844 34788 ft 432 kts 175°
2026-05-05 19:00 49.43177 8.27448 34780 ft 432 kts 174°
2026-05-05 19:00 49.37171 8.28069 34809 ft 432 kts 174°
2026-05-05 19:01 49.31249 8.28676 34825 ft 429 kts 174°
2026-05-05 19:01 49.25292 8.29292 34826 ft 430 kts 174°
2026-05-05 19:02 49.19309 8.29908 34811 ft 430 kts 174°
2026-05-05 19:02 49.13367 8.30517 34742 ft 431 kts 175°
2026-05-05 19:03 49.07367 8.31134 34870 ft 433 kts 175°
2026-05-05 19:03 49.01376 8.31741 34824 ft 434 kts 175°
2026-05-05 19:04 48.95359 8.32335 34823 ft 435 kts 175°
2026-05-05 19:04 48.89343 8.32881 34802 ft 434 kts 176°
2026-05-05 19:05 48.83353 8.33415 34833 ft 433 kts 175°
2026-05-05 19:05 48.77337 8.33957 34798 ft 433 kts 176°
2026-05-05 19:06 48.71356 8.34506 34806 ft 432 kts 176°
2026-05-05 19:06 48.65386 8.35042 34850 ft 432 kts 176°
2026-05-05 19:07 48.60374 8.35497 34821 ft 431 kts 176°
2026-05-05 19:07 48.53412 8.36125 34829 ft 431 kts 177°
2026-05-05 19:08 48.47446 8.36659 34824 ft 432 kts 177°
2026-05-05 19:08 48.41465 8.37200 34815 ft 432 kts 177°
2026-05-05 19:09 48.35469 8.37741 34827 ft 433 kts 178°
2026-05-05 19:09 48.29473 8.38277 34828 ft 433 kts 178°
2026-05-05 19:10 48.23494 8.38812 34841 ft 433 kts 178°
2026-05-05 19:10 48.17448 8.39345 34846 ft 433 kts 178°
2026-05-05 19:11 48.11429 8.39885 34839 ft 433 kts 178°
2026-05-05 19:11 48.05415 8.40430 34861 ft 433 kts 178°
2026-05-05 19:12 47.99450 8.40965 34846 ft 433 kts 178°
2026-05-05 19:12 47.93423 8.41511 34862 ft 434 kts 179°
2026-05-05 19:13 47.87426 8.42051 34872 ft 432 kts 179°
2026-05-05 19:13 47.81470 8.42588 34870 ft 431 kts 179°
2026-05-05 19:14 47.75496 8.43123 34866 ft 432 kts 179°
2026-05-05 19:14 47.69498 8.43664 34879 ft 432 kts 178°
2026-05-05 19:15 47.63530 8.44521 34884 ft 431 kts 177°
2026-05-05 19:15 47.57605 8.45386 34890 ft 430 kts 178°
2026-05-05 19:16 47.51642 8.46251 34872 ft 430 kts 177°
2026-05-05 19:16 47.45707 8.47123 34897 ft 430 kts 178°
2026-05-05 19:17 47.39771 8.47995 34881 ft 430 kts 178°
2026-05-05 19:17 47.33842 8.48864 34878 ft 429 kts 178°
2026-05-05 19:18 47.27928 8.49727 34879 ft 430 kts 178°
2026-05-05 19:18 47.21980 8.50595 34895 ft 428 kts 178°
2026-05-05 19:19 47.16105 8.51444 34891 ft 428 kts 178°
2026-05-05 19:19 47.10181 8.52315 34924 ft 428 kts 179°
2026-05-05 19:20 47.04256 8.53168 34914 ft 428 kts 179°
2026-05-05 19:20 46.98392 8.54015 34910 ft 415 kts 179°
2026-05-05 19:21 46.95568 8.54425 34918 ft 398 kts 179°
2026-05-05 19:21 46.92884 8.54818 34910 ft 382 kts 179°
2026-05-05 19:21 46.90301 8.55196 34902 ft 370 kts 180°
2026-05-05 19:21 46.87735 8.55558 34912 ft 371 kts 180°
2026-05-05 19:22 46.85130 8.55920 34754 ft 385 kts 180°
2026-05-05 19:22 46.82360 8.56301 34261 ft 408 kts 180°
2026-05-05 19:22 46.79500 8.56704 33725 ft 421 kts 180°
2026-05-05 19:22 46.76585 8.57123 33198 ft 424 kts 179°
2026-05-05 19:23 46.73674 8.57542 32676 ft 428 kts 179°
2026-05-05 19:23 46.70679 8.57973 32157 ft 430 kts 179°
2026-05-05 19:23 46.67724 8.58400 31622 ft 432 kts 179°
2026-05-05 19:23 46.64747 8.58826 31070 ft 433 kts 179°
2026-05-05 19:24 46.61761 8.59253 30554 ft 436 kts 179°
2026-05-05 19:24 46.58741 8.59681 29986 ft 438 kts 179°
2026-05-05 19:24 46.55711 8.60110 29424 ft 439 kts 179°
2026-05-05 19:24 46.52655 8.60545 28850 ft 440 kts 179°
2026-05-05 19:25 46.49625 8.60977 28253 ft 441 kts 179°
2026-05-05 19:25 46.46567 8.61211 27679 ft 438 kts 186°
2026-05-05 19:25 46.43567 8.60555 27130 ft 435 kts 197°
2026-05-05 19:25 46.40748 8.59043 26545 ft 434 kts 207°
2026-05-05 19:26 46.38147 8.56875 25918 ft 433 kts 212°
2026-05-05 19:26 46.35591 8.54611 25284 ft 431 kts 212°
2026-05-05 19:26 46.33067 8.52359 24670 ft 427 kts 212°
2026-05-05 19:26 46.30535 8.50156 24049 ft 426 kts 209°
2026-05-05 19:27 46.27793 8.48597 23415 ft 426 kts 197°
2026-05-05 19:27 46.24890 8.47883 22779 ft 426 kts 186°
2026-05-05 19:27 46.21946 8.47985 22152 ft 425 kts 178°
2026-05-05 19:27 46.18994 8.48382 21520 ft 423 kts 177°
2026-05-05 19:28 46.16130 8.48799 20862 ft 408 kts 176°
2026-05-05 19:28 46.13373 8.49302 20226 ft 387 kts 174°
2026-05-05 19:28 46.10824 8.50045 19615 ft 369 kts 169°
2026-05-05 19:28 46.08388 8.51028 19239 ft 357 kts 166°
2026-05-05 19:29 46.06101 8.52194 18980 ft 345 kts 163°
2026-05-05 19:29 46.03872 8.53392 18699 ft 333 kts 163°
2026-05-05 19:29 46.01754 8.54534 18382 ft 323 kts 163°
2026-05-05 19:29 45.99695 8.55644 18099 ft 314 kts 163°
2026-05-05 19:30 45.97646 8.56743 17857 ft 312 kts 163°
2026-05-05 19:30 45.95626 8.57828 17621 ft 311 kts 163°
2026-05-05 19:30 45.93586 8.58918 17277 ft 310 kts 163°
2026-05-05 19:30 45.91618 8.60092 16961 ft 311 kts 159°
2026-05-05 19:31 45.89689 8.61540 16688 ft 312 kts 154°
2026-05-05 19:31 45.87857 8.63227 16420 ft 312 kts 148°
2026-05-05 19:31 45.86150 8.65103 16084 ft 312 kts 146°
2026-05-05 19:31 45.84477 8.67057 15842 ft 307 kts 145°
2026-05-05 19:32 45.82841 8.68975 15556 ft 302 kts 145°
2026-05-05 19:32 45.81240 8.70847 15255 ft 298 kts 145°
2026-05-05 19:32 45.79626 8.72723 14951 ft 293 kts 145°
2026-05-05 19:32 45.78052 8.74516 14656 ft 289 kts 147°
2026-05-05 19:33 45.76424 8.76180 14309 ft 285 kts 151°
2026-05-05 19:33 45.74765 8.77669 13953 ft 282 kts 154°
2026-05-05 19:33 45.73049 8.79020 13544 ft 282 kts 155°
2026-05-05 19:33 45.71323 8.80347 13128 ft 283 kts 155°
2026-05-05 19:34 45.69602 8.81669 12710 ft 283 kts 155°
2026-05-05 19:34 45.67865 8.83007 12291 ft 283 kts 155°
2026-05-05 19:34 45.66139 8.84335 11868 ft 283 kts 155°
2026-05-05 19:35 45.62733 8.86928 11063 ft 274 kts 158°
2026-05-05 19:35 45.60980 8.87867 10790 ft 264 kts 167°
2026-05-05 19:35 45.59215 8.88425 10517 ft 257 kts 171°
2026-05-05 19:35 45.57493 8.88892 10237 ft 250 kts 172°
2026-05-05 19:36 45.55796 8.89342 9958 ft 244 kts 171°
2026-05-05 19:36 45.54147 8.89782 9671 ft 239 kts 171°
2026-05-05 19:36 45.52508 8.90223 9247 ft 240 kts 171°
2026-05-05 19:36 45.50885 8.90660 8836 ft 240 kts 171°
2026-05-05 19:37 45.49227 8.91108 8410 ft 240 kts 170°
2026-05-05 19:37 45.47613 8.91548 7996 ft 240 kts 170°
2026-05-05 19:37 45.45975 8.91993 7565 ft 240 kts 170°
2026-05-05 19:37 45.44334 8.92440 7140 ft 240 kts 170°
2026-05-05 19:38 45.42686 8.92889 6715 ft 239 kts 170°
2026-05-05 19:38 45.41063 8.93330 6293 ft 239 kts 170°
2026-05-05 19:38 45.39456 8.93765 6008 ft 232 kts 169°
2026-05-05 19:38 45.37902 8.94186 5971 ft 220 kts 169°
2026-05-05 19:39 45.36441 8.94583 5958 ft 209 kts 169°
2026-05-05 19:39 45.35024 8.94967 5965 ft 209 kts 170°
2026-05-05 19:39 45.33586 8.95358 5967 ft 209 kts 170°
2026-05-05 19:39 45.32167 8.95743 5970 ft 208 kts 170°
2026-05-05 19:40 45.30743 8.96128 5970 ft 208 kts 171°
2026-05-05 19:40 45.29326 8.96512 5962 ft 208 kts 170°
2026-05-05 19:40 45.27889 8.96899 5959 ft 208 kts 170°
2026-05-05 19:40 45.26482 8.97280 5962 ft 208 kts 170°
2026-05-05 19:41 45.25048 8.97670 5963 ft 208 kts 170°
2026-05-05 19:41 45.23636 8.98055 5966 ft 208 kts 170°
2026-05-05 19:41 45.22200 8.98446 5963 ft 207 kts 171°
2026-05-05 19:41 45.20795 8.98823 5959 ft 207 kts 171°
2026-05-05 19:42 45.19373 8.99200 5946 ft 205 kts 171°
2026-05-05 19:42 45.17997 8.99565 5719 ft 203 kts 170°
2026-05-05 19:42 45.16585 8.99850 5326 ft 206 kts 183°
2026-05-05 19:42 45.15249 8.99167 4977 ft 207 kts 220°
2026-05-05 19:43 45.14487 8.97500 4688 ft 207 kts 253°
2026-05-05 19:43 45.14241 8.95492 4373 ft 208 kts 262°
2026-05-05 19:43 45.14108 8.93467 4043 ft 208 kts 263°
2026-05-05 19:43 45.13994 8.91425 3974 ft 209 kts 266°
2026-05-05 19:44 45.14245 8.89406 3932 ft 211 kts 298°
2026-05-05 19:44 45.15260 8.87953 3946 ft 213 kts 327°
2026-05-05 19:44 45.16576 8.86929 3955 ft 216 kts 332°
2026-05-05 19:44 45.17924 8.85998 3947 ft 217 kts 334°
2026-05-05 19:45 45.19311 8.85117 3967 ft 217 kts 341°
2026-05-05 19:45 45.20756 8.84464 3962 ft 217 kts 346°
2026-05-05 19:45 45.22228 8.84011 3963 ft 217 kts 349°
2026-05-05 19:45 45.23709 8.83630 3963 ft 217 kts 350°
2026-05-05 19:46 45.25184 8.83244 3961 ft 216 kts 350°
2026-05-05 19:46 45.26676 8.82840 3958 ft 217 kts 349°
2026-05-05 19:46 45.28145 8.82433 3961 ft 217 kts 349°
2026-05-05 19:46 45.29639 8.82015 3972 ft 216 kts 349°
2026-05-05 19:47 45.31115 8.81666 3975 ft 216 kts 354°
2026-05-05 19:47 45.32599 8.81448 3976 ft 216 kts 354°
2026-05-05 19:47 45.34102 8.81193 3981 ft 217 kts 352°
2026-05-05 19:47 45.35590 8.80884 3980 ft 217 kts 351°
2026-05-05 19:48 45.37075 8.80530 3977 ft 217 kts 351°
2026-05-05 19:48 45.38565 8.80145 3982 ft 217 kts 350°
2026-05-05 19:48 45.40054 8.79739 3985 ft 217 kts 350°
2026-05-05 19:48 45.41527 8.79328 3987 ft 216 kts 350°
2026-05-05 19:49 45.42964 8.78924 3966 ft 204 kts 349°
2026-05-05 19:49 45.43881 8.78665 3997 ft 191 kts 349°
2026-05-05 19:49 45.45565 8.78192 3847 ft 185 kts 350°
2026-05-05 19:49 45.46811 8.77844 3616 ft 182 kts 350°
2026-05-05 19:50 45.48045 8.77498 3389 ft 180 kts 350°
2026-05-05 19:50 45.49277 8.77155 3163 ft 179 kts 350°
2026-05-05 19:50 45.50494 8.76816 2931 ft 177 kts 350°
2026-05-05 19:50 45.51702 8.76481 2695 ft 176 kts 350°
2026-05-05 19:51 45.52885 8.76153 2462 ft 174 kts 350°
2026-05-05 19:51 45.54080 8.75822 2265 ft 173 kts 350°
2026-05-05 19:51 45.55214 8.75508 1999 ft 161 kts 349°
2026-05-05 19:51 45.56269 8.75216 1761 ft 148 kts 349°
2026-05-05 19:52 45.57267 8.74941 1573 ft 145 kts 349°
2026-05-05 19:52 45.58251 8.74669 1393 ft 145 kts 349°
2026-05-05 19:52 45.59250 8.74395 1206 ft 146 kts 349°
2026-05-05 19:52 45.60232 8.74108 1030 ft 144 kts 349°
2026-05-05 19:53 45.61211 8.73845 830 ft 142 kts 349°
2026-05-05 19:53 45.62164 8.73588 710 ft 133 kts 349°
2026-05-05 19:53 45.62952 8.73372 723 ft 96 kts 348°
2026-05-05 19:53 45.63470 8.73222 736 ft 54 kts 347°
2026-05-05 19:54 45.63763 8.73002 746 ft 44 kts 314°
2026-05-05 19:54 45.63856 8.72836 748 ft 1 kts 306°
2026-05-05 19:55 45.63857 8.72834 748 ft 1 kts 306°
2026-05-05 19:55 45.63880 8.72784 749 ft 9 kts 302°
2026-05-05 19:55 45.63914 8.72705 751 ft 9 kts 301°
2026-05-05 19:55 45.63918 8.72603 752 ft 13 kts 216°
2026-05-05 19:56 45.63806 8.72611 749 ft 19 kts 167°
2026-05-05 19:56 45.63661 8.72650 744 ft 22 kts 169°
2026-05-05 19:56 45.63505 8.72694 741 ft 23 kts 169°
2026-05-05 19:56 45.63405 8.72647 741 ft 16 kts 248°
2026-05-05 19:57 45.63390 8.72492 742 ft 15 kts 262°
2026-05-05 19:57 45.63377 8.72392 743 ft 14 kts 259°
2026-05-05 19:57 45.63363 8.72297 744 ft 5 kts 259°
2026-05-05 19:57 45.63357 8.72248 745 ft 4 kts 259°
2026-05-05 19:58 45.63350 8.72204 746 ft 6 kts 258°
2026-05-05 19:58 45.63344 8.72162 747 ft 4 kts 258°
2026-05-05 19:58 45.63333 8.72089 748 ft 10 kts 259°
2026-05-05 19:58 45.63306 8.71986 750 ft 11 kts 221°
2026-05-05 19:59 45.63220 8.71997 748 ft 14 kts 166°
2026-05-05 19:59 45.63116 8.72021 746 ft 15 kts 173°
2026-05-05 19:59 45.63005 8.72042 743 ft 16 kts 168°
2026-05-05 19:59 45.62889 8.72077 740 ft 17 kts 169°
2026-05-05 20:00 45.62767 8.72111 737 ft 18 kts 169°
2026-05-05 20:00 45.62639 8.72144 734 ft 18 kts 168°
2026-05-05 20:00 45.62515 8.72183 734 ft 18 kts 168°
2026-05-05 20:00 45.62394 8.72217 733 ft 17 kts 170°
2026-05-05 20:01 45.62282 8.72246 731 ft 13 kts 168°
2026-05-05 20:01 45.62204 8.72195 731 ft 13 kts 250°
2026-05-05 20:01 45.62191 8.72077 733 ft 11 kts 261°
2026-05-05 20:01 45.62166 8.71988 734 ft 9 kts 214°
2026-05-05 20:02 45.62099 8.71985 731 ft 7 kts 157°
2026-05-05 20:02 45.62089 8.72056 731 ft 5 kts 81°
2026-05-05 20:02 45.62091 8.72074 731 ft 0 kts 81°